Home > Weather > Zeitz > Past weeks

Flag for Germany Weather for the Past 2 Weeks in Zeitz, Saxony-Anhalt, Germany

Now
43 °F

Clear.


Feels Like: 39 °F
Forecast: 41 / 63 °F
Wind: 6 mph from North

Location: Leipzig-Schkeuditz

Current Time: May 2, 2016 at 3:31:24 AM

Latest Report: May 2, 2016 at 2:50 AM


Visibility: 10 mi

Pressure: 30.24 "Hg

Humidity: 81%

Dew Point: 37 °F

Location of ZeitzLocation

Historic Weather in Zeitz — Graph

°F

Zeitz Temperature Yesterday

Maximum temperature yesterday: 63 °F (at 2:20 PM)
Minimum temperature yesterday: 41 °F (at 5:20 AM)
Average temperature yesterday: 53 °F

High & Low Weather Summary for the Past Weeks

 TemperatureHumidityPressure
High66 °F (Apr 30, 2:20 PM)100% (Apr 17, 6:50 AM)30.42 "Hg (Apr 17, 6:50 AM)
Low28 °F (Apr 25, 2:20 AM)32% (Apr 30, 1:50 PM)29.47 "Hg (Apr 26, 3:20 AM)
Average45 °F68%29.97 "Hg
* Reported Apr 17 1:50 AM — May 2 1:50 AM, Zeitz, Weather by CustomWeather, © 2016

Note: Actual official high and low records may vary slightly from our data, if they occured in-between our weather recording intervals... More about our weather records

Advertising

Zeitz Weather History for the Previous 24 Hours

Scroll right to see more
 ConditionsComfort  
Time TempWeatherWind HumidityBarometerVisibility
1:50 AM
Mon, May 2
46 °FClear.7 mph71%30.24 "Hg10 mi
1:20 AM46 °FClear.8 mph71%30.24 "Hg10 mi
12:50 AM46 °FClear.6 mph71%30.24 "Hg10 mi
12:20 AM48 °FClear.6 mph71%30.24 "Hg10 mi
11:50 PM
Sun, May 1
46 °FClear.3 mph76%30.24 "Hg10 mi
11:20 PM46 °FPassing clouds.3 mph76%30.24 "HgN/A
10:50 PM48 °FClear.6 mph71%30.24 "Hg10 mi
10:20 PM50 °FClear.5 mph67%30.24 "Hg10 mi
9:50 PM50 °FClear.5 mph67%30.24 "Hg10 mi
9:20 PM55 °FSunny.5 mph55%30.24 "Hg10 mi
8:50 PM55 °FSunny.5 mph59%30.24 "Hg10 mi
8:20 PM55 °FSunny.6 mph59%30.21 "Hg10 mi
7:50 PM59 °FSunny.8 mph51%30.21 "Hg10 mi
7:20 PM61 °FSunny.10 mph48%30.21 "Hg10 mi
6:50 PM61 °FSunny.12 mph45%30.21 "Hg10 mi
6:20 PM61 °FSunny.13 mph45%30.21 "Hg10 mi
5:50 PM63 °FSunny.14 mph42%30.18 "Hg10 mi
5:20 PM63 °FSunny.12 mph42%30.18 "Hg10 mi
4:50 PM63 °FSunny.16 mph39%30.18 "Hg10 mi
4:20 PM63 °FPartly sunny.13 mph42%30.18 "HgN/A
3:50 PM63 °FPartly sunny.14 mph45%30.18 "HgN/A
3:20 PM63 °FPartly sunny.14 mph42%30.18 "HgN/A
2:50 PM63 °FPartly sunny.15 mph42%30.18 "HgN/A
2:20 PM63 °FPartly sunny.15 mph42%30.18 "HgN/A
1:50 PM61 °FPartly sunny.16 mph45%30.18 "HgN/A
1:20 PM61 °FOvercast.16 mph42%30.18 "HgN/A
12:50 PM61 °FOvercast.17 mph52%30.18 "HgN/A
12:20 PM61 °FOvercast.14 mph59%30.18 "HgN/A
11:50 AM59 °FOvercast.16 mph63%30.15 "HgN/A
11:20 AM57 °FPassing clouds.13 mph63%30.15 "HgN/A
10:50 AM55 °FPassing clouds.10 mph72%30.15 "HgN/A
10:20 AM52 °FSunny.10 mph72%30.15 "Hg10 mi
9:50 AM48 °FSunny.10 mph82%30.15 "Hg10 mi
8:50 AM46 °FSunny.12 mph82%30.15 "Hg10 mi
8:20 AM45 °FSunny.10 mph87%30.15 "Hg10 mi
7:50 AM45 °FSunny.12 mph87%30.12 "Hg10 mi
7:20 AM43 °FSunny.12 mph93%30.12 "Hg10 mi
6:20 AM41 °FClear.10 mph93%30.09 "Hg5 mi
5:50 AM41 °FClear.9 mph93%30.09 "Hg4 mi
5:20 AM41 °FClear.12 mph93%30.09 "Hg4 mi
4:20 AM43 °FClear.12 mph93%30.09 "Hg10 mi
3:50 AM43 °FClear.12 mph93%30.07 "Hg10 mi
3:20 AM43 °FClear.13 mph93%30.07 "Hg10 mi
Weather by CustomWeather, © 2016

See weather overviewHow to use our weather pages